| time (UTC) | temp C | wind direction | speed KPH | gust KPH | rain 1hr cm | rain 24hr cm | rain mn cm | humidity % | barometer mb |
| 20260506110411 | 14 | 165 | 11.3 | 20.9 | 0.00 | 1.45 | 0.00 | 69 | 1005.4 |
| 20260506105411 | 15 | 164 | 12.9 | 19.3 | 0.00 | 1.45 | 0.00 | 74 | 1005.3 |
| 20260506104411 | 14 | 184 | 9.7 | 20.9 | 0.00 | 1.45 | 0.00 | 74 | 1005.4 |
| 20260506103411 | 13 | 226 | 6.4 | 16.1 | 0.00 | 1.45 | 0.00 | 75 | 1005.5 |
| 20260506101410 | 13 | 214 | 8.0 | 19.3 | 0.00 | 1.45 | 0.00 | 76 | 1005.4 |
| 20260506095411 | 12 | 190 | 6.4 | 9.7 | 0.00 | 1.45 | 0.00 | 79 | 1005.6 |
| 20260506094410 | 12 | 184 | 6.4 | 17.7 | 0.00 | 1.45 | 0.00 | 82 | 1005.7 |
| 20260506093410 | 12 | 195 | 9.7 | 19.3 | 0.00 | 1.45 | 0.00 | 82 | 1005.8 |
| 20260506092411 | 12 | 193 | 6.4 | 25.7 | 0.00 | 1.45 | 0.00 | 81 | 1005.7 |
| 20260506091410 | 13 | 144 | 6.4 | 12.9 | 0.00 | 1.45 | 0.00 | 80 | 1005.6 |
| 20260506085410 | 13 | 156 | 11.3 | 20.9 | 0.00 | 1.45 | 0.00 | 82 | 1005.5 |
| 20260506084410 | 13 | 167 | 8.0 | 19.3 | 0.00 | 1.45 | 0.00 | 85 | 1005.4 |
| 20260506083410 | 12 | 226 | 9.7 | 22.5 | 0.00 | 1.45 | 0.00 | 90 | 1005.4 |
| 20260506082410 | 11 | 210 | 8.0 | 16.1 | 0.00 | 1.45 | 0.00 | 89 | 1005.6 |
| 20260506081410 | 11 | 224 | 11.3 | 19.3 | 0.00 | 1.45 | 0.00 | 88 | 1005.6 |
| 20260506080410 | 12 | 212 | 6.4 | 14.5 | 0.00 | 1.45 | 0.00 | 89 | 1005.2 |
| 20260506072410 | 11 | 253 | 4.8 | 19.3 | 0.00 | 1.45 | 0.00 | 90 | 1004.9 |
| 20260506071410 | 12 | 210 | 8.0 | 16.1 | 0.00 | 1.45 | 0.00 | 91 | 1004.9 |
| 20260506070409 | 12 | 223 | 6.4 | 16.1 | 0.00 | 1.45 | 0.00 | 92 | 1004.9 |
| 20260506061409 | 10 | 262 | 16.1 | 22.5 | 0.00 | 1.45 | 0.00 | 94 | 1005.3 |
| 20260506060409 | 10 | 264 | 12.9 | 20.9 | 0.00 | 1.45 | 0.00 | 94 | 1005.2 |
| 20260506051409 | 10 | 236 | 6.4 | 16.1 | 0.00 | 1.45 | 0.00 | 96 | 1005.3 |
| 20260506050409 | 10 | 191 | 6.4 | 19.3 | 0.00 | 1.45 | 0.00 | 96 | 1005.3 |
| 20260506044409 | 10 | 229 | 6.4 | 27.4 | 0.00 | 1.45 | 0.00 | 97 | 1004.6 |
| 20260506043416 | 10 | 264 | 11.3 | 22.5 | 0.00 | 1.45 | 0.00 | 97 | 1004.5 |
| 20260506041408 | 10 | 247 | 8.0 | 20.9 | 0.00 | 1.45 | 0.00 | 97 | 1004.4 |
| 20260506040416 | 10 | 224 | 11.3 | 22.5 | 0.00 | 1.45 | 0.00 | 97 | 1004.3 |
| 20260506035408 | 10 | 234 | 6.4 | 17.7 | 0.00 | 1.47 | 0.00 | 97 | 1004.1 |
| 20260506034408 | 10 | 212 | 4.8 | 20.9 | 0.00 | 1.47 | 0.00 | 97 | 1004.0 |
| 20260506033410 | 10 | 216 | 4.8 | 16.1 | 0.00 | 1.47 | 0.00 | 97 | 1004.1 |
| 20260506032408 | 10 | 207 | 9.7 | 19.3 | 0.00 | 1.47 | 0.00 | 97 | 1004.0 |
| 20260506031408 | 10 | 198 | 4.8 | 14.5 | 0.00 | 1.47 | 0.00 | 97 | 1004.1 |
| 20260506030411 | 10 | 164 | 8.0 | 14.5 | 0.00 | 1.47 | 0.00 | 97 | 1004.2 |
| 20260506025408 | 10 | 174 | 4.8 | 19.3 | 0.00 | 1.50 | 0.00 | 97 | 1004.2 |
| 20260506024408 | 10 | 197 | 8.0 | 19.3 | 0.00 | 1.50 | 0.00 | 97 | 1004.2 |
| 20260506023411 | 10 | 161 | 3.2 | 14.5 | 0.00 | 1.50 | 0.00 | 97 | 1004.2 |
| 20260506021408 | 10 | 233 | 9.7 | 17.7 | 0.00 | 1.50 | 0.00 | 98 | 1004.3 |
| 20260506020409 | 10 | 161 | 4.8 | 8.0 | 0.00 | 1.50 | 0.00 | 98 | 1004.4 |
| 20260506015409 | 10 | 213 | 14.5 | 20.9 | 0.00 | 1.50 | 0.00 | 98 | 1004.2 |
| 20260506014408 | 10 | 229 | 8.0 | 16.1 | 0.00 | 1.50 | 0.00 | 98 | 1004.2 |
| 20260506013411 | 10 | 176 | 4.8 | 17.7 | 0.00 | 1.50 | 0.00 | 98 | 1004.2 |
| 20260506012408 | 10 | 197 | 4.8 | 16.1 | 0.00 | 1.50 | 0.00 | 98 | 1004.3 |
| 20260506011408 | 10 | 209 | 4.8 | 11.3 | 0.00 | 1.50 | 0.00 | 98 | 1004.3 |
| 20260506010408 | 10 | 200 | 4.8 | 11.3 | 0.00 | 1.50 | 0.00 | 98 | 1004.3 |
| 20260506005408 | 10 | 218 | 4.8 | 16.1 | 0.00 | 1.50 | 0.00 | 98 | 1004.1 |
| 20260506004408 | 10 | 226 | 6.4 | 14.5 | 0.00 | 1.50 | 0.00 | 98 | 1004.1 |
| 20260506003408 | 10 | 215 | 6.4 | 16.1 | 0.00 | 1.50 | 0.00 | 98 | 1004.2 |
| 20260506002408 | 10 | 216 | 4.8 | 14.5 | 0.00 | 1.50 | 0.00 | 98 | 1004.4 |
| 20260506000408 | 10 | 220 | 6.4 | 17.7 | 0.00 | 1.50 | 0.00 | 98 | 1004.5 |
| 20260505235408 | 10 | 249 | 12.9 | 22.5 | 0.00 | 1.50 | 0.00 | 98 | 1004.4 |
| 20260505234408 | 10 | 252 | 9.7 | 20.9 | 0.00 | 1.50 | 0.00 | 98 | 1004.6 |
| 20260505233408 | 10 | 219 | 4.8 | 11.3 | 0.00 | 1.50 | 0.00 | 98 | 1004.6 |
| 20260505232408 | 10 | 209 | 6.4 | 11.3 | 0.00 | 1.50 | 0.00 | 98 | 1004.5 |
| 20260505231409 | 10 | 209 | 4.8 | 11.3 | 0.00 | 1.50 | 0.00 | 98 | 1004.4 |
| 20260505230408 | 10 | 236 | 4.8 | 14.5 | 0.00 | 1.50 | 0.00 | 98 | 1004.4 |
| 20260505225408 | 10 | 237 | 4.8 | 22.5 | 0.00 | 1.50 | 0.00 | 98 | 1004.8 |
| 20260505224408 | 10 | 230 | 9.7 | 19.3 | 0.00 | 1.50 | 0.00 | 98 | 1004.6 |
| 20260505223413 | 10 | 210 | 4.8 | 14.5 | 0.00 | 1.50 | 0.00 | 98 | 1004.6 |
| 20260505222413 | 10 | 257 | 16.1 | 22.5 | 0.00 | 1.50 | 0.00 | 98 | 1004.4 |
| 20260505221413 | 17 | 23 | 19.3 | 29.0 | 0.00 | 0.05 | 0.00 | 60 | 1005.1 |
| 20260505220412 | 10 | 230 | 4.8 | 11.3 | 0.00 | 1.50 | 0.00 | 98 | 1004.5 |
| 20260505215412 | 10 | 177 | 4.8 | 8.0 | 0.00 | 1.50 | 1.50 | 98 | 1004.9 |
| 20260505214412 | 10 | 196 | 4.8 | 9.7 | 0.00 | 1.50 | 1.50 | 98 | 1004.9 |
| 20260505210412 | 10 | 181 | 1.6 | 4.8 | 0.00 | 1.50 | 1.50 | 97 | 1005.4 |
| 20260505205412 | 10 | 172 | 3.2 | 6.4 | 0.00 | 1.50 | 1.50 | 97 | 1005.5 |
| 20260505204412 | 10 | 159 | 4.8 | 8.0 | 0.00 | 1.50 | 1.50 | 97 | 1005.5 |
| 20260505203412 | 10 | 158 | 3.2 | 4.8 | 0.00 | 1.50 | 1.50 | 97 | 1005.5 |
| 20260505200412 | 10 | 158 | 6.4 | 9.7 | 0.05 | 1.50 | 1.50 | 96 | 1005.1 |
| 20260505195412 | 10 | 125 | 4.8 | 6.4 | 0.13 | 1.50 | 1.50 | 96 | 1005.1 |
| 20260505194412 | 10 | 298 | 0.0 | 0.0 | 0.25 | 1.50 | 1.50 | 96 | 1004.8 |
| 20260505193412 | 10 | 298 | 1.6 | 4.8 | 0.33 | 1.50 | 1.50 | 96 | 1004.9 |
| 20260505192412 | 10 | 298 | 1.6 | 4.8 | 0.41 | 1.47 | 1.47 | 96 | 1005.1 |
| 20260505191412 | 10 | 298 | 4.8 | 6.4 | 0.48 | 1.47 | 1.47 | 96 | 1005.3 |
| 20260505185412 | 10 | 276 | 9.7 | 16.1 | 0.97 | 1.37 | 1.37 | 95 | 1006.0 |
| 20260505184412 | 10 | 276 | 8.0 | 16.1 | 1.19 | 1.24 | 1.24 | 95 | 1006.2 |
| 20260505182412 | 10 | 254 | 8.0 | 20.9 | 1.04 | 1.09 | 1.09 | 94 | 1006.3 |
| 20260505181413 | 10 | 212 | 16.1 | 24.1 | 0.97 | 0.99 | 0.99 | 92 | 1006.6 |
| 20260505180412 | 10 | 163 | 11.3 | 24.1 | 0.71 | 0.74 | 0.74 | 89 | 1006.6 |
| 20260505175412 | 12 | 244 | 14.5 | 35.4 | 0.38 | 0.43 | 0.43 | 76 | 1006.6 |
| 20260505174412 | 14 | 166 | 8.0 | 14.5 | 0.00 | 0.05 | 0.05 | 77 | 1005.7 |
| 20260505173411 | 14 | 351 | 9.7 | 24.1 | 0.00 | 0.05 | 0.05 | 76 | 1004.4 |
| 20260505172412 | 15 | 359 | 17.7 | 24.1 | 0.00 | 0.05 | 0.05 | 75 | 1004.4 |
| 20260505170411 | 15 | 41 | 19.3 | 25.7 | 0.00 | 0.05 | 0.05 | 73 | 1004.5 |
| 20260505165411 | 15 | 360 | 16.1 | 29.0 | 0.00 | 0.05 | 0.05 | 72 | 1004.4 |
| 20260505164411 | 15 | 28 | 17.7 | 27.4 | 0.00 | 0.05 | 0.05 | 71 | 1004.4 |
| 20260505163411 | 15 | 49 | 16.1 | 29.0 | 0.00 | 0.05 | 0.05 | 71 | 1004.5 |
| 20260505162411 | 15 | 38 | 12.9 | 25.7 | 0.00 | 0.05 | 0.05 | 70 | 1004.7 |
| 20260505161411 | 15 | 32 | 19.3 | 27.4 | 0.00 | 0.05 | 0.05 | 69 | 1004.8 |
| 20260505160411 | 16 | 29 | 19.3 | 30.6 | 0.00 | 0.05 | 0.05 | 67 | 1004.8 |
| 20260505152411 | 16 | 4 | 19.3 | 30.6 | 0.00 | 0.05 | 0.05 | 66 | 1005.3 |
| 20260505151411 | 16 | 36 | 19.3 | 30.6 | 0.00 | 0.05 | 0.05 | 65 | 1005.1 |
| 20260505150411 | 16 | 54 | 17.7 | 25.7 | 0.00 | 0.05 | 0.05 | 66 | 1005.2 |
| 20260505140411 | 17 | 42 | 12.9 | 25.7 | 0.00 | 0.05 | 0.05 | 59 | 1005.2 |
| 20260505124410 | 20 | 359 | 8.0 | 20.9 | 0.00 | 0.05 | 0.05 | 54 | 1005.4 |
| 20260505123410 | 19 | 3 | 12.9 | 24.1 | 0.00 | 0.05 | 0.05 | 54 | 1005.6 |
| 20260505122410 | 20 | 37 | 14.5 | 20.9 | 0.00 | 0.05 | 0.05 | 52 | 1005.6 |
| 20260505120410 | 20 | 8 | 11.3 | 24.1 | 0.00 | 0.05 | 0.05 | 49 | 1005.8 |
| 20260505115410 | 20 | 11 | 16.1 | 24.1 | 0.00 | 0.05 | 0.05 | 50 | 1005.9 |
| 20260505114410 | 19 | 18 | 8.0 | 25.7 | 0.00 | 0.05 | 0.05 | 48 | 1005.9 |
| 20260505113410 | 20 | 46 | 16.1 | 22.5 | 0.00 | 0.05 | 0.05 | 49 | 1006.0 |